{"data":{"norad_id":61059,"intl_designator":"2024-164K","name":"STARLINK-11154 [DTC]","alt_names":[],"object_type":"PAYLOAD","status":"ACTIVE","operator":null,"country":"US","launch_date":"2024-09-13","launch_site_code":"AFWTR","launch_vehicle":null,"mission":null,"orbit_class":"UNKNOWN","rcs_meters":null,"size_class":null,"mass_kg":null,"dimensions":null,"purposes":["comms"],"wikipedia_slug":null,"has_3d_model":false,"image_url":null,"decayed_at":null,"tle_current":{"epoch":"2026-09-21T17:10:02.959392Z","epoch_age_seconds":87167,"freshness":"FRESH","line1":"1 61059U 24164K   26264.71531203 -.00004582  00000+0 -32979-4 0  9994","line2":"2 61059  53.1596  65.1747 0001269  84.3989 275.7173 15.69712005116209","mean_motion":15.69712005,"eccentricity":0.0001269,"inclination_deg":53.1596,"raan_deg":65.1747,"arg_perigee_deg":84.3989,"mean_anomaly_deg":275.7173,"bstar":-3.2979e-5,"rev_number":11620,"period_min":91.736573040989,"perigee_km":358.86597870153,"apogee_km":360.5760470652,"semimajor_km":6737.8580128834,"source":"CELESTRAK","updated_at":"2026-09-22T09:00:49.332677Z"}}}